Location: Arroyo de Fuente Vieja
(40.4902°N, 4.1175°W)
Time: 22:48:35
(UTC+00:00)

Okean-O - Pass Details

Date: 18 April 2024
Orbit: 633 x 635 km, 98.0° (Epoch: 23 May)

Event Time Altitude Azimuth Distance (km) Brightness Sun altitude
Exits shadow 20:49:06 35° 171° (S) 1,030 3.3 -19.7°
Maximum altitude 20:50:57 85° 258° (WSW) 644 2.6 -20.0°
Drops below altitude 10° 20:55:23 10° 346° (NNW) 2,029 5.9 -20.6°
Sets 20:57:36 0° 347° (NNW) 2,942 6.8 -21.0°
